User: anonymous   Login
Location: Unspecified
(0.0000°N, 0.0000°E)
Time: 06:55:42
(UTC+00:00)
Language:

STARLINK-36131 - Orbit

View from above orbital plane
View from above orbital plane
View from above satellite
View from above satellite

Ground track
Ground track

The orbit is defined by the following mean orbital elements,

1 67032U          26145.52620311 +.00000000 +00000-0 +66682-3 0 00000
2 67032  43.0002 323.8654 0000797 283.2157  76.8605 15.27592206    02
Epoch (UTC): 25 May 2026 12:37:43
Eccentricity: 0.0000797
inclination: 43.0002°
perigee height: 482 km
apogee height: 484 km
right ascension of ascending node: 323.8654°
argument of perigee: 283.2157°
revolutions per day: 15.27592206
mean anomaly at epoch: 76.8605°

The dashed part of the orbit path shows where the satellite is in the earth's shadow,  

DLR